Wind_Speed
10 9 8 8 8 11 14 17 19 21 21 22 23 24 24 23 22 21 21 22 24 26 27 26 27 28 29 28 27 26 26 25 24 24 25 25 26 28 31 32 31 31
11 11 10 9 10 11 12 15 17 20 21 22 24 25 25 24 23 23 23 22 22 24 26 26 26 27 28 28 27 28 27 25 23 23 24 25 25 27 30 32 32 31
12 12 11 11 12 12 13 14 15 18 20 22 24 25 25 24 23 24 25 24 24 24 25 26 27 27 27 27 27 28 27 25 23 22 24 25 26 26 28 31 33 33
12 12 12 12 13 13 14 14 15 17 18 20 23 24 24 23 22 23 24 26 27 27 26 26 26 26 26 27 28 29 29 27 25 24 25 26 25 25 27 30 33 34
13 13 13 13 14 14 15 16 16 17 18 19 21 23 25 24 24 24 24 25 27 28 29 28 28 27 27 27 28 29 30 29 26 25 25 25 24 24 25 29 33 33
13 14 14 15 15 16 17 17 17 18 19 20 20 21 23 25 26 26 26 25 24 26 27 28 30 30 30 30 30 30 30 28 25 24 24 24 23 23 24 28 32 32
14 15 15 16 16 17 18 19 19 19 20 21 21 20 22 24 27 28 28 27 25 25 25 26 28 29 30 31 32 32 31 27 25 24 23 22 23 24 25 28 31 31
16 17 17 18 18 18 19 20 21 21 21 22 22 22 22 23 26 28 29 29 28 27 26 26 26 27 28 30 32 33 33 31 28 26 25 23 22 24 27 29 31 31
16 17 18 19 19 20 21 21 22 22 23 23 23 23 23 24 26 28 29 30 31 31 29 28 28 28 29 31 32 34 36 35 33 30 29 28 26 26 28 30 32 33
14 15 16 18 18 19 21 22 23 24 25 25 26 26 25 24 26 28 29 30 33 34 34 33 32 31 31 32 34 35 36 37 36 34 34 34 33 31 30 30 33 35
13 13 15 16 16 17 18 20 22 24 25 26 27 28 28 27 26 27 28 30 32 34 36 36 35 33 32 33 34 35 36 36 35 36 36 36 36 35 33 32 33 36
14 14 14 15 15 16 17 18 20 23 25 26 27 28 30 30 29 28 28 30 31 32 34 36 37 35 34 34 33 34 34 34 34 35 36 37 37 37 37 34 34 36
13 13 12 13 13 14 15 16 18 20 22 24 26 27 29 30 31 31 30 30 31 31 32 34 36 36 36 35 34 32 32 33 35 35 35 36 36 36 37 36 36 37
11 10 11 13 14 16 16 17 18 18 19 21 23 25 27 28 30 31 31 31 31 31 32 33 35 36 36 36 35 34 32 32 34 35 36 36 37 37 37 37 37 39
9 11 13 15 16 17 18 19 20 19 18 19 20 22 23 25 27 28 30 31 31 31 32 32 34 36 36 36 35 34 34 33 33 34 35 37 39 39 39 39 39 40
9 12 14 15 17 18 19 20 21 21 19 18 19 20 21 22 24 26 28 29 31 31 31 32 33 34 36 36 35 33 33 34 34 34 35 36 39 40 41 41 41 42
10 13 13 14 16 18 19 20 21 21 19 17 18 19 19 20 21 24 25 26 28 30 31 32 32 32 33 34 35 34 31 31 32 33 34 36 37 40 42 43 43 43
10 13 13 14 16 18 19 20 21 20 18 16 15 16 17 18 19 21 23 24 25 27 30 32 33 32 31 31 34 35 33 31 30 31 33 36 38 40 42 45 46 45
10 13 15 16 18 19 19 20 20 18 16 14 13 13 14 16 17 18 20 22 23 25 28 30 32 33 31 30 31 33 35 34 31 30 32 37 40 42 43 44 46 46
11 14 15 16 18 19 19 19 19 17 15 13 13 13 14 15 16 17 17 19 21 24 26 28 30 31 31 31 30 30 33 36 35 33 34 36 39 42 45 45 46 46
11 12 13 14 16 18 19 18 17 16 15 15 14 13 14 15 15 16 17 18 19 21 24 27 29 30 31 32 31 30 30 32 35 37 37 37 37 39 43 46 46 46
10 11 13 14 15 17 19 18 18 16 14 14 14 14 14 14 15 16 16 17 18 20 22 25 27 28 30 31 32 31 29 30 33 37 39 39 36 35 39 43 46 47
10 11 13 14 14 17 19 19 19 17 14 12 12 14 14 14 14 15 16 17 18 19 21 24 25 27 28 29 30 30 30 30 33 36 39 40 38 36 36 39 43 46
10 10 12 12 12 15 18 18 18 18 17 14 11 12 14 14 13 14 15 17 18 19 21 23 25 25 26 28 29 29 29 31 33 35 38 39 40 39 37 36 38 41
12 11 11 11 11 13 15 15 16 17 18 16 14 11 11 12 12 13 14 15 16 19 20 23 26 26 25 26 28 29 30 31 32 35 37 39 39 39 38 37 37 37
13 10 9 10 10 12 14 13 13 14 16 16 15 14 12 11 10 11 12 12 14 16 18 20 23 25 25 26 26 27 28 28 29 33 36 38 38 38 38 38 38 38
Wind_Direction
263 264 263 261 259 261 259 254 253 248 240 233 234 237 238 237 238 240 243 244 243 239 237 238 239 239 236 232 229 231 234 238 240 240 241 241 239 234 231 231 233 237
266 262 262 262 261 262 261 258 256 253 248 239 235 238 241 241 239 238 239 243 245 241 237 237 240 240 238 234 232 233 234 236 237 237 237 240 243 242 237 233 232 233
273 266 262 263 263 263 262 261 258 255 253 245 239 240 242 243 241 238 238 241 243 241 238 237 237 239 238 235 233 233 233 234 235 235 236 238 243 247 244 238 235 233
280 272 265 261 261 261 260 260 258 256 255 251 245 244 243 242 239 238 238 239 240 239 238 237 235 236 238 237 236 235 236 236 236 236 236 238 242 246 247 242 238 236
286 277 271 266 261 258 257 258 256 253 251 249 247 246 246 243 240 240 238 237 238 237 236 236 234 234 236 237 238 239 240 239 238 236 234 235 240 246 248 245 243 240
288 278 272 269 264 260 258 256 255 253 250 247 245 244 245 244 243 244 244 241 240 239 238 237 236 236 237 238 238 240 242 244 243 241 237 236 240 247 250 249 246 244
289 283 275 270 266 262 259 257 255 254 250 248 247 244 242 241 241 244 247 248 247 245 244 244 243 244 245 245 244 243 244 247 249 248 244 242 243 248 252 251 248 247
287 284 279 275 270 264 260 258 257 255 251 247 247 246 244 241 239 240 243 246 247 247 247 248 249 251 253 253 251 251 251 250 249 250 250 249 248 250 253 253 252 250
291 287 284 279 275 270 264 260 257 255 253 250 248 247 247 243 239 238 240 242 244 244 243 243 244 247 250 251 251 252 254 253 252 251 252 253 252 251 252 254 256 255
301 295 290 284 280 276 270 265 261 256 254 252 249 248 248 247 242 240 240 241 242 243 242 240 239 241 243 246 248 251 253 255 255 253 251 253 254 251 248 251 256 258
309 302 297 291 288 284 278 272 267 262 258 254 251 249 249 248 246 244 243 243 242 242 242 240 239 240 241 243 248 250 252 254 256 254 250 250 252 251 249 250 254 257
310 307 304 303 300 295 290 283 275 269 264 259 255 252 250 249 248 247 247 245 243 243 243 242 241 240 241 243 246 249 251 251 252 251 250 249 250 252 252 251 251 253
313 313 314 316 316 313 307 300 290 279 269 263 259 255 253 251 249 249 249 249 247 245 244 245 244 243 241 241 244 247 249 250 250 250 250 250 251 252 251 250 250 251
322 323 326 329 327 323 319 315 308 295 278 266 260 258 256 254 252 250 250 251 251 248 245 245 246 246 244 241 242 244 247 249 251 251 251 250 251 252 251 250 250 251
330 332 336 334 328 323 321 317 312 304 289 270 260 259 259 257 255 253 251 252 253 252 249 246 245 246 246 244 242 242 244 247 250 252 251 249 249 251 252 252 250 250
331 335 337 333 327 323 321 318 314 309 297 277 261 258 259 258 256 255 253 253 253 253 252 249 247 246 246 245 244 242 242 246 249 251 251 251 250 251 252 253 251 249
333 338 341 335 329 326 325 325 320 312 302 284 266 258 258 259 258 257 257 257 256 255 254 251 250 249 247 245 244 243 243 246 250 252 252 252 253 252 252 252 251 249
332 344 353 348 340 334 332 330 323 314 306 296 280 268 263 262 262 262 262 261 260 259 257 255 254 253 252 248 244 243 243 245 250 255 254 253 254 255 253 251 250 250
337 352 358 354 349 344 338 333 325 315 310 307 297 286 278 273 270 269 267 264 261 259 258 258 257 256 256 255 249 244 242 242 247 252 254 253 254 255 255 252 250 248
349 356 354 351 351 351 349 340 329 317 306 301 297 291 285 283 279 277 273 267 262 260 260 259 259 258 257 258 256 250 244 243 244 248 250 253 254 256 255 253 251 248
354 352 345 345 347 353 355 346 333 323 308 296 292 288 283 283 284 281 277 270 264 263 263 262 262 261 259 258 257 255 251 248 246 246 248 252 256 258 257 255 253 250
348 348 343 343 345 351 354 346 338 334 320 298 288 284 281 281 283 286 285 281 275 270 268 268 266 265 263 261 258 257 256 254 250 247 248 251 256 258 256 254 252 250
344 346 342 339 342 350 351 345 342 343 337 317 294 283 280 279 281 284 284 283 282 277 273 273 273 271 267 263 260 258 258 258 254 248 248 251 254 257 258 256 252 249
347 342 338 336 343 351 349 343 343 345 344 339 317 292 282 279 276 277 276 274 276 276 276 277 278 278 273 267 263 260 260 260 257 252 250 252 253 254 257 258 256 253
346 337 330 330 343 353 346 340 343 345 345 345 340 323 304 288 275 267 266 268 272 275 277 277 276 275 272 268 266 264 262 260 258 254 252 252 254 255 255 256 257 255
339 336 327 328 344 353 346 338 340 343 346 349 351 348 339 323 300 279 268 265 266 269 271 273 275 274 271 267 265 264 262 259 256 253 251 251 253 255 256 256 254 252
Height
1501 1501 1501 1500 1500 1501 1501 1501 1501 1502 1502 1503 1503 1504 1505 1506 1508 1510 1511 1512 1514 1515 1516 1518 1519 1521 1522 1523 1523 1524 1525 1526 1527 1528 1529 1530 1532 1533 1534 1535 1536 1538
1499 1499 1500 1499 1499 1499 1499 1499 1499 1499 1499 1500 1500 1501 1502 1504 1505 1507 1508 1509 1511 1512 1513 1515 1516 1518 1519 1520 1520 1521 1522 1523 1524 1525 1526 1527 1528 1530 1531 1533 1533 1535
1498 1498 1498 1498 1498 1497 1497 1497 1497 1497 1497 1497 1498 1499 1500 1501 1502 1504 1505 1506 1508 1509 1511 1512 1513 1515 1516 1517 1518 1519 1520 1521 1522 1523 1523 1524 1526 1527 1528 1530 1531 1532
1496 1496 1496 1496 1496 1496 1495 1495 1495 1495 1495 1495 1496 1497 1498 1499 1500 1501 1502 1503 1505 1506 1507 1509 1510 1512 1513 1515 1516 1517 1518 1519 1520 1521 1521 1522 1523 1524 1525 1528 1529 1530
1494 1494 1493 1494 1494 1494 1494 1493 1493 1493 1493 1493 1494 1496 1497 1497 1498 1499 1499 1501 1502 1503 1504 1506 1507 1509 1510 1512 1513 1514 1516 1517 1518 1518 1518 1519 1520 1521 1523 1526 1527 1528
1491 1491 1491 1491 1491 1491 1491 1491 1491 1491 1491 1492 1492 1493 1495 1496 1497 1497 1497 1498 1499 1500 1502 1503 1504 1505 1506 1508 1510 1511 1513 1514 1515 1516 1516 1516 1518 1519 1521 1523 1525 1526
1489 1489 1488 1488 1488 1488 1489 1489 1489 1489 1490 1490 1490 1491 1492 1493 1494 1495 1496 1496 1496 1497 1498 1499 1500 1501 1502 1504 1505 1507 1509 1510 1511 1512 1512 1512 1514 1516 1519 1521 1523 1524
1487 1486 1486 1485 1485 1485 1486 1486 1486 1486 1487 1487 1487 1488 1489 1490 1490 1492 1493 1493 1493 1494 1495 1496 1497 1498 1499 1500 1501 1503 1504 1505 1506 1507 1507 1508 1510 1513 1516 1519 1521 1522
1484 1484 1483 1483 1482 1482 1482 1482 1483 1483 1483 1484 1484 1485 1486 1486 1487 1487 1488 1489 1490 1490 1491 1493 1494 1495 1496 1496 1497 1498 1499 1500 1501 1502 1503 1504 1505 1508 1512 1515 1517 1518
1482 1481 1480 1480 1479 1479 1479 1479 1479 1479 1480 1480 1481 1481 1482 1482 1483 1483 1484 1485 1485 1486 1487 1488 1489 1491 1492 1492 1493 1493 1494 1495 1496 1498 1500 1501 1502 1504 1507 1510 1513 1515
1480 1479 1478 1477 1476 1476 1476 1476 1475 1475 1476 1476 1476 1477 1478 1478 1479 1479 1480 1480 1481 1481 1482 1483 1484 1486 1486 1487 1488 1488 1489 1491 1493 1494 1496 1497 1499 1501 1503 1505 1508 1510
1477 1477 1476 1475 1474 1473 1473 1473 1472 1472 1472 1472 1472 1472 1473 1474 1474 1475 1475 1476 1476 1477 1478 1478 1479 1481 1482 1483 1484 1485 1486 1487 1489 1490 1492 1493 1495 1497 1499 1501 1503 1506
1475 1474 1473 1472 1472 1471 1470 1469 1469 1468 1468 1467 1467 1467 1467 1468 1469 1470 1470 1471 1472 1473 1473 1474 1474 1476 1477 1479 1480 1482 1483 1484 1485 1486 1488 1490 1491 1493 1495 1497 1499 1502
1473 1472 1471 1470 1469 1468 1467 1466 1465 1464 1463 1463 1463 1463 1463 1463 1464 1465 1465 1466 1466 1467 1468 1469 1470 1471 1472 1474 1476 1478 1480 1481 1482 1483 1484 1486 1488 1489 1491 1494 1496 1499
1471 1470 1469 1468 1466 1464 1463 1462 1461 1460 1459 1459 1459 1459 1459 1459 1460 1460 1461 1461 1462 1462 1463 1465 1465 1466 1468 1470 1472 1474 1476 1477 1478 1479 1481 1483 1484 1486 1487 1490 1492 1495
1469 1468 1467 1465 1463 1462 1460 1458 1457 1456 1455 1455 1455 1455 1455 1455 1456 1456 1457 1457 1458 1458 1459 1460 1461 1463 1464 1466 1468 1470 1472 1473 1474 1475 1477 1478 1480 1481 1483 1485 1488 1490
1468 1466 1465 1463 1461 1459 1458 1455 1454 1452 1451 1451 1451 1451 1452 1452 1452 1453 1453 1454 1454 1455 1456 1456 1457 1459 1461 1463 1464 1466 1468 1470 1470 1472 1473 1475 1476 1477 1479 1481 1483 1486
1466 1464 1462 1461 1459 1457 1455 1453 1451 1449 1448 1448 1448 1448 1449 1449 1449 1450 1450 1451 1451 1452 1452 1453 1453 1455 1457 1459 1461 1463 1465 1467 1467 1469 1470 1471 1472 1473 1475 1477 1479 1481
1464 1462 1460 1459 1457 1455 1452 1450 1449 1447 1446 1446 1446 1446 1446 1446 1446 1447 1447 1447 1448 1448 1449 1449 1450 1451 1453 1455 1457 1459 1461 1463 1464 1466 1466 1467 1468 1469 1470 1472 1474 1477
1462 1461 1459 1458 1456 1453 1451 1448 1446 1445 1445 1444 1444 1444 1444 1444 1444 1444 1444 1444 1444 1445 1445 1446 1447 1448 1449 1451 1453 1455 1457 1459 1460 1461 1461 1462 1463 1465 1466 1468 1470 1472
1461 1460 1459 1457 1455 1453 1451 1448 1445 1443 1442 1442 1442 1441 1441 1442 1442 1441 1441 1441 1442 1442 1442 1442 1443 1445 1446 1447 1448 1450 1453 1454 1456 1456 1456 1457 1458 1461 1462 1463 1465 1468
1460 1459 1458 1456 1454 1452 1450 1448 1445 1443 1441 1440 1440 1440 1439 1439 1439 1439 1439 1439 1439 1439 1439 1439 1440 1441 1442 1443 1444 1446 1448 1450 1450 1450 1451 1452 1453 1456 1457 1459 1461 1462
1459 1458 1456 1455 1453 1451 1449 1447 1445 1443 1441 1439 1438 1438 1438 1438 1437 1437 1437 1437 1437 1437 1437 1437 1437 1438 1439 1439 1440 1442 1444 1445 1446 1446 1446 1447 1448 1450 1452 1454 1456 1457
1459 1458 1456 1454 1452 1450 1448 1447 1444 1442 1440 1438 1437 1436 1436 1436 1435 1435 1435 1435 1435 1435 1435 1435 1435 1435 1436 1437 1437 1439 1440 1441 1441 1441 1441 1442 1443 1445 1448 1450 1452 1453
1459 1458 1456 1454 1452 1450 1448 1446 1444 1442 1440 1438 1436 1435 1434 1434 1433 1433 1432 1432 1433 1433 1432 1432 1432 1432 1433 1433 1434 1435 1435 1436 1437 1437 1437 1438 1439 1441 1444 1446 1447 1449
1459 1457 1456 1454 1452 1450 1448 1446 1444 1442 1440 1438 1436 1435 1433 1432 1431 1431 1430 1430 1431 1431 1430 1430 1429 1429 1429 1429 1430 1430 1430 1431 1431 1432 1432 1434 1435 1437 1439 1441 1442 1444